Location: Wells
(51.2093°N, 2.6446°W)
Time: 06:18:56
(UTC+01:00)

ITUPSAT 1 - Pass Details

Date: 21 March 2026
Orbit: 686 x 698 km, 98.4° (Epoch: 15 April)

Event Time Altitude Azimuth Distance (km) Brightness Sun altitude
Rises 00:11:50 0° 12° (NNE) 3,073 ? -38.6°
Reaches altitude 10° 00:14:07 10° 9° (N) 2,151 ? -38.6°
Enters shadow 00:15:11 17° 7° (N) 1,727 ? -38.6°
